Location: Arbon
(43.0005°N, 0.7472°E)
Time: 03:03:38
(UTC+00:00)

COSMOS 2428 - Pass Details

Date: 07 August 2020
Orbit: 844 x 859 km, 70.9° (Epoch: 27 September)

Event Time Altitude Azimuth Distance (km) Brightness Sun altitude
Rises 00:21:17 0° 337° (NNW) 3,432 6.7 -30.5°
Reaches altitude 10° 00:23:46 10° 339° (NNW) 2,494 5.9 -30.5°
Enters shadow 00:29:08 68° 38° (NE) 924 2.9 -30.4°
